Wind_Speed
22 21 20 19 19 19 19 18 18 17 17 16 16 16 14 13 12 12 13 13 15 15 17 18 18 18 18 19 19 19 18 17 16 16 16 17 18 19 21 23 26 29 31 33
22 22 19 19 18 17 16 15 15 14 14 14 13 13 12 10 10 10 12 13 14 15 16 17 18 19 19 19 19 19 18 17 16 16 16 16 16 16 18 19 21 24 27 29
22 20 18 17 16 14 13 12 12 12 11 11 11 10 9 8 8 10 12 13 14 15 16 17 18 19 19 20 20 20 19 17 17 16 15 14 13 13 14 16 18 20 23 26
21 18 17 15 13 11 10 9 9 8 9 9 8 8 7 7 8 10 12 13 13 15 16 16 17 19 20 20 20 20 20 18 17 17 16 15 13 12 12 12 13 16 18 21
19 16 14 12 10 8 7 6 5 6 6 6 6 6 7 8 9 11 11 12 13 15 15 16 17 19 20 20 20 20 20 20 19 18 17 16 15 13 12 12 11 12 14 16
17 14 12 10 7 5 3 2 3 5 5 5 5 5 6 7 9 10 11 12 13 14 15 16 18 19 19 20 20 20 20 20 20 19 17 16 15 14 13 12 12 11 11 13
14 12 10 8 6 4 1 1 3 4 5 5 5 6 6 7 9 9 10 12 13 14 15 16 17 18 19 20 20 21 20 20 21 20 19 18 17 15 15 14 13 12 11 11
13 11 9 7 5 4 3 3 4 4 4 5 5 6 6 7 9 9 11 12 13 14 15 16 17 18 19 20 20 20 21 21 21 21 20 19 18 17 16 15 14 13 12 11
13 10 8 7 6 5 4 4 4 4 4 4 5 6 7 8 9 10 11 12 13 14 15 15 16 17 18 19 20 20 21 22 22 22 22 21 20 19 18 17 16 15 13 13
12 10 9 8 7 6 5 4 4 4 3 4 4 6 7 8 9 10 11 12 13 13 14 15 16 16 17 18 19 20 21 22 22 23 23 23 22 21 20 19 18 17 16 15
12 10 9 8 7 6 5 5 4 4 4 3 4 5 6 8 9 10 11 11 12 12 13 14 15 16 16 17 19 20 21 22 22 23 23 24 23 22 21 20 19 19 18 17
12 11 10 9 7 6 6 6 5 5 4 4 4 5 6 7 8 10 11 11 12 12 13 13 14 15 16 17 18 19 21 22 22 23 23 24 24 24 23 22 21 20 20 20
13 12 11 9 7 6 5 5 5 5 5 5 5 6 6 7 8 9 10 11 12 12 12 13 13 14 15 17 18 19 20 21 22 22 23 23 24 24 23 23 23 23 22 22
13 12 11 9 7 6 5 5 5 5 6 6 6 7 7 8 8 9 10 11 12 12 12 13 13 14 15 16 17 18 19 20 21 22 23 23 24 24 24 24 25 24 24 24
13 12 11 9 7 5 4 4 4 4 5 5 6 7 7 8 9 9 10 10 11 12 13 13 14 14 15 16 17 18 19 20 21 22 23 23 24 25 25 25 25 26 26 26
13 12 10 8 6 5 3 2 2 2 3 3 4 5 6 7 8 9 10 10 11 12 12 13 14 15 15 16 17 18 19 20 21 22 23 24 24 25 25 26 26 27 27 27
13 12 10 8 6 5 3 2 1 1 2 3 4 5 6 7 8 9 10 11 12 12 13 14 15 16 17 17 18 19 20 21 22 23 23 24 24 25 26 26 26 27 28 28
13 11 9 8 7 6 5 4 4 4 4 4 5 6 8 9 10 11 12 12 13 14 15 16 16 17 18 19 19 20 21 21 22 23 23 24 24 25 26 27 27 27 28 29
12 11 10 9 8 7 7 6 6 6 7 7 8 9 10 11 12 12 13 14 15 16 17 17 18 18 19 20 20 21 21 22 22 23 24 24 25 25 26 26 27 28 28 29
12 11 10 10 9 9 9 9 9 9 9 10 11 12 12 13 14 15 15 16 17 18 18 19 19 20 20 21 21 21 22 22 23 24 24 24 25 25 26 26 27 27 28 28
13 12 12 12 12 11 11 11 12 13 13 14 14 14 15 16 16 17 17 17 18 18 19 20 20 20 21 21 22 22 22 23 23 24 24 25 25 25 25 26 26 27 28 28
15 14 14 15 15 14 14 15 15 16 16 16 16 16 17 17 17 18 18 19 19 19 20 20 21 21 22 22 22 23 23 23 23 24 24 25 25 25 25 26 26 26 27 27
17 17 17 17 17 17 17 17 17 17 18 18 18 18 18 19 19 19 19 19 20 20 21 22 22 23 23 23 24 24 24 24 24 24 24 25 25 25 25 25 26 26 26 26
19 19 19 19 19 19 19 19 19 19 19 19 20 20 20 20 20 20 21 21 21 22 22 23 24 25 25 26 25 25 25 24 25 25 25 25 25 25 25 25 26 26 26 26
21 21 21 21 21 21 21 21 21 21 21 21 21 21 21 22 22 22 22 23 24 24 25 26 27 28 28 29 28 27 26 26 26 26 26 26 26 25 25 25 25 25 25 25
24 23 24 23 23 23 23 23 23 23 23 23 23 23 23 24 24 25 26 26 27 28 29 30 31 31 32 32 32 31 29 28 28 28 28 27 27 27 26 26 26 26 25 25
Wind_Direction
237 242 248 256 263 271 280 287 293 301 308 313 317 319 323 327 334 342 347 349 349 349 350 352 352 351 349 347 344 341 337 332 326 317 307 298 289 281 274 268 262 258 255 253
235 241 247 255 264 273 280 288 297 307 313 316 321 327 332 340 350 356 358 357 357 356 356 356 355 353 351 351 350 349 346 344 339 333 323 312 301 291 282 275 268 261 257 254
235 242 247 255 264 272 280 293 305 314 320 324 330 339 349 0 8 8 5 2 0 359 357 356 357 357 356 356 355 354 353 352 349 345 339 330 319 306 295 284 274 266 261 256
234 241 248 255 263 272 285 297 309 321 329 336 345 356 11 19 19 13 8 5 2 0 359 359 360 360 359 358 358 358 358 356 354 351 350 346 339 330 317 303 289 277 268 262
233 240 246 252 258 269 285 299 318 333 342 351 7 22 26 28 21 14 10 8 4 2 1 360 358 358 359 360 0 360 360 0 359 356 355 354 351 344 335 325 312 294 279 270
228 233 238 242 248 259 273 306 347 357 6 21 30 34 34 26 18 14 11 8 4 3 1 1 1 1 2 3 4 4 4 5 5 4 2 0 358 354 348 339 330 316 300 285
222 226 227 228 232 224 197 68 36 35 38 44 42 44 37 25 18 14 10 8 6 5 4 4 5 6 7 8 9 10 11 12 12 12 11 9 5 -0 355 350 343 334 321 307
215 216 214 211 202 180 145 97 73 64 58 56 49 45 35 26 22 18 13 9 8 8 9 9 10 10 12 14 15 16 18 18 18 17 16 13 10 7 2 357 352 346 338 328
206 204 200 191 177 163 135 104 86 77 70 58 45 39 31 22 19 17 13 10 10 10 11 11 12 14 17 19 20 21 22 22 22 21 20 18 15 12 8 3 359 354 347 337
196 194 188 176 165 149 131 111 98 84 72 54 38 28 21 17 16 15 14 13 14 14 14 14 16 17 19 21 22 22 23 23 23 22 21 19 17 15 12 9 4 358 351 344
185 184 175 166 154 140 128 113 99 88 70 53 35 27 22 21 18 16 15 15 16 17 17 18 18 19 20 21 21 21 21 21 21 21 20 19 18 16 13 10 6 1 355 347
176 172 163 153 141 128 118 107 99 93 77 58 45 35 25 24 22 21 20 19 18 17 17 18 18 19 20 21 20 20 20 20 20 19 19 18 17 16 14 10 6 1 356 349
171 165 159 153 144 130 119 109 99 88 75 58 44 38 29 28 27 25 24 22 21 19 18 18 17 18 18 18 17 17 16 16 17 17 16 16 15 14 13 10 6 1 356 351
170 164 161 157 149 135 121 109 96 83 70 59 48 42 35 32 29 27 25 23 22 21 20 18 16 14 13 13 13 13 13 12 13 13 12 12 12 12 10 8 5 2 358 354
172 168 165 162 156 146 132 115 96 80 68 56 43 34 28 25 22 20 18 16 15 14 14 12 11 9 7 6 6 6 6 6 6 6 6 6 7 7 6 6 4 3 360 356
173 171 171 172 170 167 159 140 113 78 58 44 31 20 15 10 9 8 6 4 3 2 2 3 2 1 359 357 356 356 356 357 357 357 359 359 0 1 1 1 1 1 0 359
175 177 181 185 190 195 201 216 242 300 339 351 355 356 355 354 353 352 351 350 350 350 350 350 350 349 349 348 347 347 348 349 350 351 353 354 355 356 357 358 357 358 358 359
181 185 190 198 206 217 230 244 264 284 297 310 321 327 331 334 337 338 339 341 342 342 341 341 341 341 340 341 341 341 342 343 344 345 347 349 351 352 353 355 356 356 357 358
192 197 204 212 221 232 240 252 270 283 292 298 306 313 318 323 326 328 330 332 333 334 335 335 335 335 335 335 336 336 337 339 340 341 342 343 345 347 349 351 353 355 356 358
206 211 219 227 236 243 250 261 272 281 287 292 299 305 311 316 319 322 323 324 325 326 328 329 330 331 331 332 333 333 334 334 336 337 339 340 341 343 345 347 350 352 354 356
221 227 234 241 248 253 257 264 272 278 284 289 295 301 306 310 313 315 317 318 320 322 324 325 326 327 328 328 329 331 333 334 334 335 336 337 338 339 341 343 345 348 351 353
234 238 243 248 254 257 261 266 271 277 283 288 293 297 301 304 307 310 313 316 318 320 322 323 323 324 325 325 326 328 329 330 331 332 333 334 336 336 338 339 342 344 347 350
243 246 249 252 258 262 264 268 272 277 282 286 290 294 297 301 305 308 311 314 316 317 318 319 320 321 322 322 323 324 325 326 327 328 329 330 331 333 335 336 338 340 343 345
248 251 254 256 259 263 267 270 273 277 281 284 288 292 295 299 302 305 308 310 311 313 315 316 316 317 317 317 317 319 320 321 321 322 324 325 326 327 329 331 333 336 338 341
253 255 256 258 261 264 266 269 273 276 279 282 285 289 293 296 299 301 304 306 308 309 310 311 311 312 312 312 312 312 313 314 314 315 316 317 319 321 323 325 327 329 332 335
256 257 257 259 261 263 266 269 271 274 277 280 284 287 290 292 295 298 300 302 304 305 306 306 306 306 306 306 306 307 307 307 307 308 309 310 311 313 315 317 320 322 324 327
Height
5896 5899 5900 5901 5901 5901 5900 5899 5897 5895 5892 5889 5886 5883 5880 5877 5874 5872 5869 5866 5863 5859 5856 5852 5849 5845 5841 5837 5832 5828 5824 5820 5816 5813 5811 5809 5808 5807 5806 5806 5806 5807 5808 5810
5894 5895 5897 5897 5897 5897 5897 5896 5894 5891 5889 5886 5883 5880 5878 5875 5873 5870 5868 5865 5862 5859 5855 5852 5848 5844 5840 5835 5831 5826 5822 5818 5814 5811 5808 5805 5803 5802 5801 5800 5800 5800 5801 5803
5890 5892 5893 5894 5894 5894 5893 5892 5891 5888 5886 5883 5881 5879 5876 5874 5872 5870 5867 5864 5862 5858 5855 5851 5847 5843 5839 5835 5830 5826 5821 5817 5813 5810 5806 5803 5800 5799 5797 5796 5795 5795 5795 5796
5886 5888 5890 5891 5891 5891 5890 5890 5888 5886 5884 5882 5880 5878 5876 5873 5871 5869 5867 5864 5861 5858 5855 5851 5847 5843 5839 5834 5830 5825 5821 5816 5812 5809 5805 5801 5799 5796 5794 5792 5791 5790 5790 5790
5884 5885 5887 5888 5888 5888 5888 5887 5886 5884 5882 5881 5879 5878 5877 5874 5871 5869 5867 5864 5861 5858 5855 5851 5847 5843 5839 5834 5830 5825 5821 5816 5812 5808 5804 5801 5798 5795 5792 5790 5788 5787 5786 5785
5881 5883 5884 5885 5886 5886 5886 5886 5884 5883 5881 5881 5879 5878 5876 5874 5872 5869 5867 5864 5861 5858 5855 5851 5847 5843 5839 5834 5830 5825 5821 5816 5812 5807 5803 5800 5797 5794 5791 5789 5787 5785 5783 5782
5879 5881 5882 5883 5884 5885 5885 5885 5884 5883 5881 5881 5879 5877 5877 5874 5872 5869 5867 5864 5861 5858 5855 5851 5847 5843 5839 5835 5830 5826 5821 5816 5812 5808 5804 5800 5797 5793 5790 5788 5785 5783 5781 5779
5877 5880 5881 5882 5883 5883 5883 5884 5884 5883 5882 5881 5879 5877 5877 5874 5872 5869 5867 5864 5861 5858 5855 5851 5847 5844 5840 5835 5831 5827 5822 5817 5813 5809 5804 5800 5797 5793 5790 5787 5784 5782 5779 5777
5876 5878 5879 5880 5881 5882 5882 5882 5882 5882 5881 5881 5879 5878 5877 5874 5872 5869 5867 5864 5861 5858 5855 5852 5848 5844 5841 5837 5832 5828 5824 5819 5815 5810 5806 5802 5798 5794 5790 5787 5784 5781 5778 5776
5874 5877 5878 5879 5880 5881 5882 5882 5882 5881 5881 5880 5880 5878 5877 5874 5872 5870 5867 5864 5861 5858 5855 5852 5849 5845 5842 5838 5834 5830 5825 5821 5817 5812 5808 5803 5799 5795 5791 5787 5784 5780 5777 5774
5873 5876 5878 5879 5880 5880 5881 5881 5881 5881 5881 5880 5879 5880 5876 5874 5872 5870 5867 5864 5862 5859 5856 5853 5850 5846 5843 5839 5835 5831 5827 5823 5818 5814 5809 5805 5800 5796 5792 5788 5784 5780 5776 5773
5872 5875 5877 5878 5879 5880 5880 5880 5881 5881 5880 5879 5879 5881 5876 5874 5872 5869 5867 5865 5862 5859 5856 5853 5850 5847 5844 5841 5837 5833 5829 5824 5820 5816 5811 5806 5802 5797 5793 5788 5784 5780 5776 5772
5872 5875 5876 5878 5881 5880 5880 5880 5880 5880 5880 5879 5878 5880 5875 5874 5872 5870 5867 5865 5862 5860 5857 5854 5851 5848 5845 5842 5838 5834 5830 5826 5821 5817 5812 5808 5803 5798 5794 5789 5784 5779 5775 5770
5871 5874 5877 5878 5879 5879 5880 5880 5880 5880 5879 5879 5878 5877 5875 5873 5872 5870 5867 5865 5863 5860 5857 5855 5852 5849 5846 5842 5839 5835 5831 5827 5822 5818 5813 5809 5804 5799 5794 5789 5784 5779 5774 5768
5871 5873 5875 5877 5878 5879 5879 5880 5879 5879 5879 5878 5878 5876 5875 5873 5871 5869 5867 5865 5863 5861 5858 5855 5852 5849 5846 5842 5839 5835 5831 5827 5823 5818 5814 5809 5804 5799 5794 5789 5784 5778 5773 5767
5870 5872 5874 5876 5877 5878 5878 5879 5879 5879 5878 5878 5877 5876 5874 5873 5871 5869 5867 5865 5863 5861 5858 5855 5852 5849 5846 5842 5839 5835 5831 5827 5823 5818 5814 5809 5804 5799 5794 5789 5783 5778 5772 5765
5869 5872 5874 5875 5876 5877 5878 5878 5878 5878 5877 5877 5876 5876 5874 5872 5871 5869 5867 5865 5862 5860 5857 5854 5851 5848 5845 5841 5838 5834 5830 5826 5822 5817 5813 5808 5803 5798 5793 5788 5782 5777 5771 5764
5869 5870 5872 5873 5875 5876 5878 5876 5876 5876 5876 5875 5875 5874 5872 5871 5869 5867 5865 5863 5861 5858 5856 5853 5850 5846 5843 5840 5836 5832 5828 5824 5820 5816 5811 5807 5802 5797 5792 5787 5781 5776 5769 5763
5867 5869 5870 5872 5872 5873 5874 5874 5874 5874 5874 5873 5872 5871 5870 5869 5867 5866 5863 5861 5859 5856 5854 5851 5848 5844 5841 5837 5834 5830 5826 5822 5818 5814 5810 5805 5800 5796 5791 5786 5780 5774 5768 5762
5865 5867 5869 5869 5870 5871 5873 5872 5871 5872 5871 5870 5869 5869 5867 5866 5865 5864 5861 5858 5856 5854 5851 5848 5845 5842 5839 5835 5831 5828 5824 5820 5816 5812 5808 5803 5798 5794 5789 5784 5779 5773 5767 5761
5863 5864 5865 5865 5866 5867 5868 5867 5868 5869 5869 5867 5866 5865 5864 5863 5862 5860 5857 5855 5853 5850 5847 5845 5842 5839 5836 5832 5829 5825 5821 5817 5813 5809 5805 5801 5796 5791 5787 5782 5777 5771 5766 5760
5859 5860 5861 5861 5862 5865 5863 5863 5864 5864 5863 5862 5861 5861 5860 5858 5857 5855 5853 5851 5849 5846 5844 5841 5838 5835 5832 5829 5825 5822 5818 5814 5810 5806 5802 5798 5793 5789 5784 5780 5775 5770 5764 5759
5854 5856 5856 5858 5860 5859 5858 5858 5858 5858 5858 5857 5856 5856 5854 5853 5852 5850 5848 5846 5844 5842 5839 5836 5833 5830 5827 5824 5821 5818 5815 5811 5807 5803 5799 5795 5790 5786 5782 5777 5772 5768 5763 5757
5849 5850 5851 5851 5852 5852 5852 5852 5852 5852 5852 5851 5851 5850 5849 5848 5846 5845 5843 5841 5839 5837 5834 5831 5828 5825 5822 5819 5816 5813 5810 5806 5802 5799 5795 5791 5787 5783 5778 5774 5770 5765 5760 5756
5843 5843 5844 5845 5846 5846 5846 5846 5846 5846 5846 5845 5845 5844 5843 5842 5840 5839 5837 5835 5833 5831 5828 5825 5822 5819 5816 5813 5810 5807 5804 5801 5797 5793 5789 5786 5782 5778 5774 5770 5766 5762 5758 5753
5836 5837 5837 5838 5839 5840 5840 5839 5839 5839 5839 5838 5838 5837 5836 5835 5834 5832 5830 5828 5826 5824 5821 5818 5815 5812 5808 5805 5802 5799 5797 5794 5790 5787 5783 5780 5777 5773 5769 5766 5762 5758 5754 5750